CAPE
nan nan nan nan nan nan nan nan nan nan nan nan nan nan nan nan nan nan nan nan nan nan nan nan nan nan nan nan nan nan nan nan nan nan nan nan nan nan nan nan nan nan nan nan nan nan nan 0 0 0 1 1 2 2 3 5 5 7 11 12 12 14 16 18 18 18 16 17 18 18 16 13 10 10 9 10 10 10 12 16 16 21 26 33 33 42
nan nan nan nan nan nan nan nan nan nan nan nan nan nan nan nan nan nan nan nan nan nan nan nan nan nan nan nan nan nan nan nan nan nan nan nan nan nan nan nan nan nan nan nan nan nan 0 0 0 0 1 1 2 2 3 5 5 7 8 11 11 12 13 15 15 16 16 16 12 12 10 9 8 8 8 11 14 14 18 23 23 27 30 39 39 47
nan nan nan nan nan nan nan nan nan nan nan nan nan nan nan nan nan nan nan nan nan nan nan nan nan nan nan nan nan nan nan nan nan nan nan nan nan nan nan nan nan nan nan 0 0 0 0 0 0 1 1 2 2 2 3 5 5 6 6 7 7 9 11 12 12 11 12 12 10 10 7 7 7 7 11 16 19 19 23 26 26 30 35 43 43 54
nan nan nan nan nan nan nan nan nan nan nan nan nan nan nan nan nan nan nan nan nan nan nan nan nan nan nan nan nan nan nan nan nan nan nan nan nan nan nan nan nan nan nan 0 0 0 1 1 1 1 2 2 3 3 4 5 5 4 5 5 5 5 6 7 7 7 7 7 5 5 5 7 10 10 14 19 21 21 23 26 26 31 38 46 46 58
nan nan nan nan nan nan nan nan nan nan nan nan nan nan nan nan nan nan nan nan nan nan nan nan nan nan nan nan nan nan nan nan nan nan nan nan nan nan nan nan nan nan nan 0 0 0 1 2 2 3 3 3 3 3 4 4 4 4 4 4 4 5 5 5 5 5 5 5 5 5 6 9 12 12 16 18 22 22 25 28 28 32 40 51 51 60
nan nan 0 nan nan nan nan nan nan nan nan nan nan nan nan nan nan nan nan nan nan nan nan nan nan nan nan nan nan nan nan nan nan nan nan nan nan nan nan nan nan nan nan 0 0 0 2 2 2 3 3 3 3 3 3 4 4 4 4 4 4 4 4 4 4 4 4 4 5 5 8 11 12 12 17 20 24 24 28 30 30 35 40 51 51 60
nan nan nan nan nan nan nan nan nan nan nan nan nan nan nan nan nan nan nan nan nan nan nan nan nan nan nan nan nan nan nan nan nan nan nan nan nan nan nan nan nan nan nan 0 0 1 2 2 2 2 2 2 3 3 3 4 4 4 3 4 4 4 4 3 3 4 5 6 7 7 10 11 13 13 15 19 24 24 29 33 33 37 40 47 47 56
nan nan nan nan nan nan nan nan nan nan nan nan nan nan nan nan nan nan nan nan nan nan nan nan nan nan nan nan nan nan nan nan nan nan nan nan nan nan nan nan nan nan nan nan nan 0 1 1 1 1 2 2 3 3 3 2 2 2 2 2 2 2 3 5 5 7 10 12 13 13 15 16 16 16 18 17 20 20 25 33 33 42 44 45 45 48
nan nan nan nan nan nan nan nan nan nan nan nan nan nan nan nan nan nan nan nan nan nan nan nan nan nan nan nan nan nan nan nan nan nan nan nan nan nan nan nan nan nan nan nan nan nan nan nan nan 0 0 1 2 2 1 1 1 0 0 1 1 2 4 7 7 10 13 15 15 15 17 19 20 20 20 22 21 21 23 31 31 39 44 48 48 50
nan nan nan nan nan nan nan nan nan nan nan nan nan nan nan nan nan nan nan nan nan nan nan nan nan nan nan nan nan nan nan nan nan nan nan nan nan nan nan nan nan nan nan nan nan nan nan nan nan nan nan 0 0 0 0 nan nan nan 0 1 1 3 6 9 9 13 15 16 19 19 20 21 23 23 23 25 23 23 25 29 29 35 42 48 48 51
nan nan nan nan nan nan nan nan nan nan nan nan nan nan nan nan nan nan nan nan nan nan nan nan nan nan nan nan nan nan nan nan nan nan nan nan nan nan nan nan nan nan nan nan nan nan nan nan nan nan nan nan nan nan nan nan nan nan 0 2 2 4 8 12 12 16 18 19 21 21 22 23 26 26 27 28 28 28 29 30 30 32 36 44 44 51
nan nan nan nan nan nan nan nan nan nan nan nan nan nan nan nan nan nan nan nan nan nan nan nan nan nan nan nan nan nan nan nan nan nan nan nan nan nan nan nan nan nan nan nan nan nan nan nan nan nan nan nan nan nan nan nan nan nan 1 3 3 7 10 14 14 16 17 20 22 22 25 27 28 28 30 30 32 32 33 32 32 35 36 42 42 50
nan nan nan nan nan nan nan nan nan nan nan nan nan nan nan nan nan nan nan nan nan nan nan nan nan nan nan nan nan nan nan nan nan nan nan nan nan nan nan nan nan nan nan nan nan nan nan nan nan nan nan nan nan nan nan nan nan 0 3 7 7 11 13 15 15 17 18 20 24 24 27 29 30 30 32 35 37 37 36 36 36 37 40 41 41 48
nan nan nan nan nan nan nan nan nan nan nan nan nan nan nan nan nan nan nan nan nan nan nan nan nan nan nan nan nan nan nan nan nan nan nan nan nan nan nan nan nan nan nan nan nan nan nan nan nan nan nan nan nan nan nan nan nan 2 6 10 10 12 14 15 15 16 18 21 24 24 27 28 30 30 32 34 36 36 37 37 37 38 39 40 40 44
nan nan nan nan nan nan nan nan nan nan nan nan nan nan nan nan nan nan nan nan nan nan nan nan nan nan nan nan nan nan nan nan nan nan nan nan nan nan nan nan nan nan nan nan nan nan nan nan nan nan nan nan nan nan nan 1 1 8 9 12 12 14 14 16 16 17 19 22 24 24 26 28 29 29 30 32 35 35 34 34 34 36 37 39 39 43
nan nan nan nan nan nan nan nan nan nan nan nan nan nan nan nan nan nan nan nan nan nan nan nan nan nan nan nan nan nan nan nan nan nan nan nan nan nan nan nan nan nan nan nan nan nan nan nan nan nan nan nan nan nan 0 5 5 9 11 13 13 14 15 15 15 17 18 21 23 23 24 26 27 27 29 30 31 31 32 32 32 32 35 37 37 40
nan nan nan nan nan nan nan nan nan nan nan nan nan nan nan nan nan nan nan nan nan nan nan nan nan nan nan nan nan nan nan nan nan nan nan nan nan nan nan nan nan nan nan nan nan nan nan nan nan nan nan nan 0 0 1 5 5 9 12 13 13 14 15 16 16 16 18 19 22 22 23 25 25 25 27 27 29 29 29 31 31 32 33 37 37 39
nan nan nan nan nan nan nan nan nan nan nan nan nan nan nan nan nan nan nan nan nan nan nan nan nan nan nan nan nan nan nan nan nan nan nan nan nan nan nan nan nan nan nan nan nan nan nan nan nan nan nan nan 1 1 2 5 5 8 11 12 12 13 15 15 15 17 17 20 21 21 22 24 24 24 27 27 28 28 30 33 33 34 34 39 39 40
nan nan nan nan nan nan nan nan nan nan nan nan nan nan nan nan nan nan nan nan nan nan nan nan nan nan nan nan nan nan nan nan nan nan nan nan nan nan nan nan nan nan nan nan nan nan nan nan nan nan nan nan 0 0 2 5 5 7 9 10 10 12 14 15 15 16 17 20 21 21 23 24 25 25 27 26 28 28 30 32 32 36 37 39 39 42
nan nan nan nan nan nan nan nan nan nan nan nan nan nan nan nan nan nan nan nan nan nan nan nan nan nan nan nan nan nan nan nan nan nan nan nan nan nan nan nan nan nan nan nan nan nan nan nan nan nan nan nan 0 0 1 3 3 5 6 8 8 10 13 15 15 16 18 20 21 21 22 23 24 24 25 27 29 29 29 34 34 35 37 39 39 43
nan nan nan nan nan nan nan nan nan nan nan nan nan nan nan nan nan nan nan nan nan nan nan nan nan nan nan nan nan nan nan nan nan nan nan nan nan nan nan nan nan nan nan nan nan nan nan nan nan nan nan nan 0 0 1 2 2 3 5 7 7 11 12 14 14 16 19 21 21 21 22 21 22 22 23 24 28 28 30 33 33 38 39 42 42 44
nan nan nan nan nan nan nan nan nan nan nan nan nan nan nan nan nan nan nan nan nan 0 0 0 0 nan nan nan nan nan nan nan nan nan nan nan nan nan nan nan nan nan nan nan nan nan nan nan nan nan nan nan 0 0 0 1 1 2 5 7 7 9 11 13 13 16 17 19 19 19 21 22 21 21 24 24 28 28 30 32 32 36 39 40 40 42
nan nan nan nan nan nan nan nan nan nan nan nan nan nan nan nan nan nan nan nan nan 0 1 nan nan nan nan nan nan nan nan nan nan nan nan nan nan nan nan nan nan nan nan nan nan nan nan nan nan nan nan nan nan nan nan 0 0 1 4 6 6 7 9 12 12 14 17 18 20 20 20 20 21 21 22 24 28 28 29 30 30 33 35 37 37 40
nan nan nan nan nan nan nan nan nan nan nan nan nan nan nan nan nan nan nan nan nan nan nan nan nan nan nan nan nan nan nan nan nan nan nan nan nan nan nan nan nan nan nan nan nan nan nan nan nan nan nan nan nan nan nan 0 0 1 3 5 5 6 9 11 11 13 16 17 18 18 19 21 22 22 21 24 27 27 28 29 29 31 34 33 33 35
nan nan nan nan nan nan nan nan nan nan nan nan nan nan nan nan nan nan nan nan nan nan nan nan nan nan nan nan nan nan nan nan nan nan nan nan nan nan nan nan nan nan nan nan nan nan nan nan nan nan nan nan nan nan nan nan nan 0 2 4 4 6 8 11 11 12 14 16 17 17 18 20 21 21 23 23 24 24 25 28 28 28 30 31 31 31
nan nan nan nan nan nan 0 1 1 1 2 nan nan nan nan nan nan nan nan nan nan nan nan nan nan nan nan nan nan nan nan nan nan nan nan nan nan nan nan nan nan nan nan nan nan nan nan nan nan nan nan nan nan nan nan nan nan 0 2 3 3 6 8 9 9 11 12 13 15 15 17 20 21 21 22 23 23 23 24 24 24 24 25 26 26 27
1 nan 0 0 0 1 1 1 2 2 3 3 nan nan nan nan nan nan nan nan nan nan nan nan nan nan nan nan nan nan nan nan nan nan nan nan nan nan nan nan nan nan nan nan nan nan nan nan nan nan nan nan nan nan nan nan nan 0 1 3 3 4 6 8 8 9 10 11 13 13 15 18 20 20 21 22 23 23 22 22 22 23 24 25 25 24
0 0 0 1 1 1 0 nan 0 0 2 4 9 9 nan nan nan nan nan nan nan nan nan nan nan nan nan nan nan nan nan nan nan nan nan nan nan nan nan nan nan nan nan nan nan nan nan nan nan nan nan nan nan nan nan nan nan 0 1 2 2 3 4 5 5 6 8 9 12 12 14 16 18 18 21 20 22 22 22 22 22 23 24 15 15 4
nan nan 0 0 0 0 nan nan 0 0 2 3 7 7 nan nan nan nan nan nan nan nan nan nan nan nan nan nan nan nan nan nan nan nan nan nan nan nan nan nan nan nan nan nan nan nan nan nan nan nan nan nan nan nan nan nan nan nan nan 0 0 1 2 3 3 4 6 8 9 9 12 14 17 17 18 18 19 19 20 21 21 22 17 9 9 2
nan nan nan nan nan nan nan nan nan nan 2 2 3 3 nan nan nan nan nan nan nan nan nan nan nan nan nan nan nan nan nan nan nan nan nan nan nan nan nan nan nan nan nan nan nan nan nan nan nan nan nan nan nan nan nan nan nan nan nan nan nan nan 0 2 2 3 5 6 8 8 10 13 15 15 14 16 17 17 18 20 20 16 7 3 3 1
nan nan nan nan nan nan nan nan nan nan nan 2 0 0 nan nan nan nan nan nan nan nan nan nan nan nan nan nan nan nan nan nan nan nan nan nan nan nan nan nan nan nan nan nan nan nan nan nan nan nan nan nan nan nan nan nan nan nan nan nan nan nan nan 0 0 2 4 5 7 7 9 10 12 12 12 12 14 14 17 21 21 17 4 1 1 1
nan nan nan nan nan nan nan nan nan nan nan nan nan nan nan nan nan nan nan nan nan nan nan nan nan nan nan nan nan nan nan nan nan nan nan nan nan nan nan nan nan nan nan nan nan nan nan nan nan nan nan nan nan nan nan nan nan nan nan nan nan nan nan nan nan nan nan 2 4 4 5 6 7 7 7 9 11 11 14 18 18 18 6 1 1 3
nan nan nan nan nan nan nan nan nan nan nan nan nan nan nan nan nan nan nan nan nan nan nan nan nan nan nan nan nan nan nan nan nan nan nan nan nan nan nan nan nan nan nan nan nan nan nan nan nan nan nan nan nan nan nan nan nan nan nan nan nan nan nan nan nan nan nan nan nan nan 1 2 4 4 5 7 9 9 12 16 16 20 19 2 2 2
nan nan nan nan nan nan nan nan nan nan nan nan nan nan nan nan nan nan nan nan nan nan nan nan nan nan nan nan nan nan nan nan nan nan nan nan nan nan nan nan nan nan nan nan nan nan nan nan nan nan nan nan nan nan nan nan nan nan nan nan nan nan nan nan nan nan nan nan nan nan nan nan nan nan 1 5 8 8 11 14 14 17 19 11 11 4
nan nan nan nan nan nan nan nan nan nan nan nan nan nan nan nan nan nan nan nan nan nan nan nan nan nan nan nan nan nan nan nan nan nan nan nan nan nan nan nan nan nan nan nan nan nan nan nan nan nan nan nan nan nan nan nan nan nan nan nan nan nan nan nan nan nan nan nan nan nan nan nan nan nan nan 1 6 6 10 12 12 13 16 19 19 13
nan nan nan nan nan nan nan nan nan nan nan nan nan nan nan nan nan nan nan nan nan nan nan nan nan nan nan nan nan nan nan nan nan nan nan nan nan nan nan nan nan nan nan nan nan nan nan nan nan nan nan nan nan nan nan nan nan nan nan nan nan nan nan nan nan nan nan nan nan nan nan nan nan nan nan 3 7 7 9 9 9 11 12 14 14 16
nan nan nan nan nan nan nan nan nan nan nan nan nan nan nan nan nan nan nan nan nan nan nan nan nan nan nan nan nan nan nan nan nan nan nan nan nan nan nan nan nan nan nan nan nan nan nan nan nan nan nan nan nan nan nan nan nan nan nan nan nan nan nan nan nan nan nan nan nan nan nan nan nan nan nan 4 3 3 5 9 9 8 11 12 12 13
nan nan nan nan nan nan nan nan nan nan nan nan nan nan nan nan nan nan nan nan nan nan nan nan nan nan nan nan nan nan nan nan nan nan nan nan nan nan nan nan nan nan nan nan nan nan nan nan nan nan nan nan nan nan nan nan nan nan nan nan nan nan nan nan nan nan nan nan nan nan nan nan nan nan nan nan nan nan nan nan nan 1 7 7 7 9
nan nan nan nan nan nan nan nan nan nan nan nan nan nan nan nan nan nan nan nan nan nan nan nan nan nan nan nan nan nan nan nan nan nan nan nan nan nan nan nan nan nan nan nan nan nan nan nan nan nan nan nan nan nan nan nan nan nan nan nan nan nan nan nan nan nan nan nan nan nan nan nan nan nan nan nan nan nan nan nan nan nan nan nan nan 2
nan nan nan nan nan nan nan nan nan nan nan nan nan nan nan nan nan nan nan nan nan nan nan nan nan nan nan nan nan nan nan nan nan nan nan nan nan nan nan nan nan nan nan nan nan nan nan nan nan nan nan nan nan nan nan nan nan nan 0 nan nan nan nan nan nan nan nan nan nan nan nan nan nan nan nan nan nan nan nan nan nan nan nan nan nan nan
nan nan nan nan nan nan nan nan nan nan nan nan nan nan nan nan nan nan nan nan nan nan nan nan nan nan nan nan nan nan nan nan nan nan nan nan nan nan nan nan nan nan nan nan nan nan nan nan nan nan nan nan nan nan nan nan nan 1 4 nan nan nan nan nan nan nan nan nan nan nan nan nan 0 0 nan nan nan nan nan nan nan nan nan nan nan nan
nan nan nan nan nan nan nan nan nan nan nan nan nan nan nan nan nan nan nan nan nan nan nan nan nan nan nan nan nan nan nan nan nan nan nan nan nan nan nan nan nan nan nan nan nan nan nan nan nan nan nan nan nan nan nan nan nan nan 0 nan nan nan nan nan nan nan nan nan nan nan 0 nan nan nan nan nan nan nan nan nan nan 0 2 nan nan nan
nan nan nan nan nan nan nan nan nan nan nan nan nan nan nan nan nan nan nan nan nan nan nan nan nan nan nan nan nan nan nan nan nan nan nan nan nan nan nan nan nan nan nan nan nan nan nan nan nan nan nan nan nan nan nan nan nan nan nan nan nan nan nan nan nan nan nan nan nan nan nan nan nan nan nan nan nan nan nan nan nan 5 4 nan nan nan
nan nan nan nan nan nan nan nan nan nan nan nan nan nan nan nan nan nan nan nan nan nan nan nan nan nan nan nan nan nan nan nan nan nan nan nan nan nan nan nan nan nan nan nan nan nan nan nan nan nan nan nan nan nan nan nan nan nan nan nan nan nan nan nan nan nan nan nan nan nan nan nan nan nan nan nan nan nan nan nan nan nan nan nan nan nan
nan nan nan nan nan nan nan nan nan nan nan nan nan nan nan nan nan nan nan nan nan nan nan nan nan nan nan nan nan nan nan nan nan nan nan nan nan nan nan nan nan nan nan nan nan nan nan nan nan nan nan nan nan nan nan nan nan nan nan nan nan nan nan nan nan nan nan nan nan nan nan nan nan nan nan nan nan nan nan nan nan nan nan nan nan nan
nan nan nan nan nan nan nan nan nan nan nan nan nan nan nan nan nan nan nan nan nan nan nan nan nan nan nan nan nan nan nan nan nan nan nan nan nan nan nan nan nan nan nan nan nan nan nan nan nan nan nan nan nan nan nan nan nan nan nan nan nan nan nan nan nan nan nan nan nan nan nan nan nan nan nan nan nan nan nan nan nan nan nan nan nan nan
nan nan nan nan nan nan nan nan nan nan nan nan nan nan nan nan nan nan nan nan nan nan nan nan nan nan nan nan nan nan nan nan nan nan nan nan nan nan nan nan nan nan nan nan nan nan nan nan nan nan nan nan nan nan nan nan nan nan nan nan nan nan nan nan nan nan nan nan nan nan nan nan nan nan nan nan nan nan nan nan nan nan nan nan nan nan
nan nan nan nan nan nan nan nan nan nan nan nan nan nan nan nan nan nan nan nan nan nan nan nan nan nan nan nan nan nan nan nan nan nan nan nan nan nan nan nan nan nan nan nan nan 0 nan nan nan nan nan nan nan nan nan nan nan nan nan nan nan nan nan nan nan nan nan nan nan nan nan nan nan nan nan nan nan nan nan nan nan nan nan nan nan nan
nan nan nan nan nan nan nan nan nan nan nan nan nan nan nan nan nan nan nan nan nan nan nan nan nan nan nan nan nan nan nan nan nan nan nan nan nan nan nan nan nan nan nan nan nan nan nan nan nan nan nan nan nan nan nan nan nan nan nan nan nan nan nan nan nan nan nan nan nan nan nan nan nan nan nan nan nan nan nan nan nan nan nan nan nan nan
nan nan nan nan nan nan nan nan nan nan nan nan nan nan nan nan nan nan nan nan nan nan nan nan nan nan nan nan nan nan nan nan nan nan nan nan nan nan nan nan nan nan nan nan nan nan nan nan nan nan nan nan nan nan nan nan nan nan nan nan nan nan nan nan nan nan nan nan nan nan nan nan nan nan nan nan nan nan nan nan nan nan nan nan nan nan
nan nan nan nan nan nan nan nan nan nan nan nan 0 0 nan nan nan nan nan nan nan nan nan nan nan nan nan nan nan nan nan nan nan nan nan nan nan nan nan nan nan nan nan nan nan nan nan nan nan nan nan nan nan nan nan nan nan nan nan nan nan nan nan nan nan nan nan nan nan nan nan nan nan nan nan nan nan nan nan nan nan nan nan nan nan nan
CIN
nan nan nan nan nan nan nan nan nan nan nan nan nan nan nan nan nan nan nan nan nan nan nan nan nan nan nan nan nan nan nan nan nan nan nan nan nan nan nan nan nan nan nan nan nan nan nan -0 -0 -0 -0 -0 -0 -0 -0 -0 -0 -0 -0 -0 -0 -0 -0 -0 -0 -0 -0 -0 -0 -0 -0 -0 -0 -0 -0 -0 -0 -0 -0 -0 -0 -0 -0 -0 -0 -0
nan nan nan nan nan nan nan nan nan nan nan nan nan nan nan nan nan nan nan nan nan nan nan nan nan nan nan nan nan nan nan nan nan nan nan nan nan nan nan nan nan nan nan nan nan nan -0 -0 -0 -0 -0 -0 -0 -0 -0 -0 -0 -0 -0 -0 -0 -0 -0 -0 -0 -0 -0 -0 -0 -0 -0 -0 -0 -0 -0 -0 -0 -0 -0 -0 -0 -0 -0 -0 -0 -0
nan nan nan nan nan nan nan nan nan nan nan nan nan nan nan nan nan nan nan nan nan nan nan nan nan nan nan nan nan nan nan nan nan nan nan nan nan nan nan nan nan nan nan -0 -0 -0 -0 -0 -0 -0 -0 -0 -0 -0 -0 -0 -0 -0 -0 -0 -0 -0 -0 -0 -0 -0 -0 -0 -0 -0 -0 -0 -0 -0 -0 -0 -0 -0 -0 -0 -0 -0 -0 -0 -0 -0
nan nan nan nan nan nan nan nan nan nan nan nan nan nan nan nan nan nan nan nan nan nan nan nan nan nan nan nan nan nan nan nan nan nan nan nan nan nan nan nan nan nan nan -0 -0 -0 -0 -0 -0 -0 -0 -0 -0 -0 -0 -0 -0 -0 -0 -0 -0 -0 -0 -0 -0 -0 -0 -0 -0 -0 -0 -0 -0 -0 -0 -0 -0 -0 -0 -0 -0 -0 -0 -0 -0 -0
nan nan nan nan nan nan nan nan nan nan nan nan nan nan nan nan nan nan nan nan nan nan nan nan nan nan nan nan nan nan nan nan nan nan nan nan nan nan nan nan nan nan nan -0 -0 -0 -0 -0 -0 -0 -0 -0 -0 -0 -0 -0 -0 -0 -0 -0 -0 -0 -0 -0 -0 -0 -0 -0 -0 -0 -0 -0 -0 -0 -0 -0 -0 -0 -0 -0 -0 -0 -0 -0 -0 -0
nan nan -0 nan nan nan nan nan nan nan nan nan nan nan nan nan nan nan nan nan nan nan nan nan nan nan nan nan nan nan nan nan nan nan nan nan nan nan nan nan nan nan nan -0 -0 -0 -0 -0 -0 -0 -0 -0 -0 -0 -0 -0 -0 -0 -0 -0 -0 -0 -0 -0 -0 -0 -0 -0 -0 -0 -0 -0 -0 -0 -0 -0 -0 -0 -0 -0 -0 -0 -0 -0 -0 -0
nan nan nan nan nan nan nan nan nan nan nan nan nan nan nan nan nan nan nan nan nan nan nan nan nan nan nan nan nan nan nan nan nan nan nan nan nan nan nan nan nan nan nan -0 -0 -0 -0 -0 -0 -0 -0 -0 -0 -0 -0 -0 -0 -0 -0 -0 -0 -0 -0 -0 -0 -0 -0 -0 -0 -0 -0 -0 -0 -0 -0 -0 -0 -0 -0 -0 -0 -0 -0 -0 -0 -0
nan nan nan nan nan nan nan nan nan nan nan nan nan nan nan nan nan nan nan nan nan nan nan nan nan nan nan nan nan nan nan nan nan nan nan nan nan nan nan nan nan nan nan nan nan -0 -0 -0 -0 -0 -0 -0 -0 -0 -0 -0 -0 -0 -0 -0 -0 -0 -0 -0 -0 -0 -0 -0 -0 -0 -0 -0 -0 -0 -0 -0 -0 -0 -0 -0 -0 -0 -0 -0 -0 -0
nan nan nan nan nan nan nan nan nan nan nan nan nan nan nan nan nan nan nan nan nan nan nan nan nan nan nan nan nan nan nan nan nan nan nan nan nan nan nan nan nan nan nan nan nan nan nan nan nan -0 -0 -0 -0 -0 -0 -0 -0 -0 -0 -0 -0 -0 -0 -0 -0 -0 -0 -0 -0 -0 -0 -0 -0 -0 -0 -0 -0 -0 -0 -0 -0 -0 -0 -0 -0 -0
nan nan nan nan nan nan nan nan nan nan nan nan nan nan nan nan nan nan nan nan nan nan nan nan nan nan nan nan nan nan nan nan nan nan nan nan nan nan nan nan nan nan nan nan nan nan nan nan nan nan nan -0 -0 -0 -0 nan nan nan -0 -0 -0 -0 -0 -0 -0 -0 -0 -0 -0 -0 -0 -0 -0 -0 -0 -0 -0 -0 -0 -0 -0 -0 -0 -0 -0 -0
nan nan nan nan nan nan nan nan nan nan nan nan nan nan nan nan nan nan nan nan nan nan nan nan nan nan nan nan nan nan nan nan nan nan nan nan nan nan nan nan nan nan nan nan nan nan nan nan nan nan nan nan nan nan nan nan nan nan -0 -0 -0 -0 -0 -0 -0 -0 -0 -0 -0 -0 -0 -0 -0 -0 -0 -0 -0 -0 -0 -0 -0 -0 -0 -0 -0 -0
nan nan nan nan nan nan nan nan nan nan nan nan nan nan nan nan nan nan nan nan nan nan nan nan nan nan nan nan nan nan nan nan nan nan nan nan nan nan nan nan nan nan nan nan nan nan nan nan nan nan nan nan nan nan nan nan nan nan -0 -0 -0 -0 -0 -0 -0 -0 -0 -0 -0 -0 -0 -0 -0 -0 -0 -0 -0 -0 -0 -0 -0 -0 -0 -0 -0 -0
nan nan nan nan nan nan nan nan nan nan nan nan nan nan nan nan nan nan nan nan nan nan nan nan nan nan nan nan nan nan nan nan nan nan nan nan nan nan nan nan nan nan nan nan nan nan nan nan nan nan nan nan nan nan nan nan nan -0 -0 -0 -0 -0 -0 -0 -0 -0 -0 -0 -0 -0 -0 -0 -0 -0 -0 -0 -0 -0 -0 -0 -0 -0 -0 -0 -0 -0
nan nan nan nan nan nan nan nan nan nan nan nan nan nan nan nan nan nan nan nan nan nan nan nan nan nan nan nan nan nan nan nan nan nan nan nan nan nan nan nan nan nan nan nan nan nan nan nan nan nan nan nan nan nan nan nan nan -0 -0 -0 -0 -0 -0 -0 -0 -0 -0 -0 -0 -0 -0 -0 -0 -0 -0 -0 -0 -0 -0 -0 -0 -0 -0 -0 -0 -0
nan nan nan nan nan nan nan nan nan nan nan nan nan nan nan nan nan nan nan nan nan nan nan nan nan nan nan nan nan nan nan nan nan nan nan nan nan nan nan nan nan nan nan nan nan nan nan nan nan nan nan nan nan nan nan -0 -0 -0 -0 -0 -0 -0 -0 -0 -0 -0 -0 -0 -0 -0 -0 -0 -0 -0 -0 -0 -0 -0 -0 -0 -0 -0 -0 -0 -0 -0
nan nan nan nan nan nan nan nan nan nan nan nan nan nan nan nan nan nan nan nan nan nan nan nan nan nan nan nan nan nan nan nan nan nan nan nan nan nan nan nan nan nan nan nan nan nan nan nan nan nan nan nan nan nan -0 -0 -0 -0 -0 -0 -0 -0 -0 -0 -0 -0 -0 -0 -0 -0 -0 -0 -0 -0 -0 -0 -0 -0 -0 -0 -0 -0 -0 -0 -0 -0
nan nan nan nan nan nan nan nan nan nan nan nan nan nan nan nan nan nan nan nan nan nan nan nan nan nan nan nan nan nan nan nan nan nan nan nan nan nan nan nan nan nan nan nan nan nan nan nan nan nan nan nan -0 -0 -0 -0 -0 -0 -0 -0 -0 -0 -0 -0 -0 -0 -0 -0 -0 -0 -0 -0 -0 -0 -0 -0 -0 -0 -0 -0 -0 -0 -0 -0 -0 -0
nan nan nan nan nan nan nan nan nan nan nan nan nan nan nan nan nan nan nan nan nan nan nan nan nan nan nan nan nan nan nan nan nan nan nan nan nan nan nan nan nan nan nan nan nan nan nan nan nan nan nan nan -0 -0 -0 -0 -0 -0 -0 -0 -0 -0 -0 -0 -0 -0 -0 -0 -0 -0 -0 -0 -0 -0 -0 -0 -0 -0 -0 -0 -0 -0 -0 -0 -0 -0
nan nan nan nan nan nan nan nan nan nan nan nan nan nan nan nan nan nan nan nan nan nan nan nan nan nan nan nan nan nan nan nan nan nan nan nan nan nan nan nan nan nan nan nan nan nan nan nan nan nan nan nan -0 -0 -0 -0 -0 -0 -0 -0 -0 -0 -0 -0 -0 -0 -0 -0 -0 -0 -0 -0 -0 -0 -0 -0 -0 -0 -0 -0 -0 -0 -0 -0 -0 -0
nan nan nan nan nan nan nan nan nan nan nan nan nan nan nan nan nan nan nan nan nan nan nan nan nan nan nan nan nan nan nan nan nan nan nan nan nan nan nan nan nan nan nan nan nan nan nan nan nan nan nan nan -0 -0 -0 -0 -0 -0 -0 -0 -0 -0 -0 -0 -0 -0 -0 -0 -0 -0 -0 -0 -0 -0 -0 -0 -0 -0 -0 -0 -0 -0 -0 -0 -0 -0
nan nan nan nan nan nan nan nan nan nan nan nan nan nan nan nan nan nan nan nan nan nan nan nan nan nan nan nan nan nan nan nan nan nan nan nan nan nan nan nan nan nan nan nan nan nan nan nan nan nan nan nan -0 -0 -0 -0 -0 -0 -0 -0 -0 -0 -0 -0 -0 -0 -0 -0 -0 -0 -0 -0 -0 -0 -0 -0 -0 -0 -0 -0 -0 -0 -0 -0 -0 -0
nan nan nan nan nan nan nan nan nan nan nan nan nan nan nan nan nan nan nan nan nan -2 -1 -1 -1 nan nan nan nan nan nan nan nan nan nan nan nan nan nan nan nan nan nan nan nan nan nan nan nan nan nan nan -0 -0 -0 -0 -0 -0 -0 -0 -0 -0 -0 -0 -0 -0 -0 -0 -0 -0 -0 -0 -0 -0 -0 -0 -0 -0 -0 -0 -0 -0 -0 -0 -0 -0
nan nan nan nan nan nan nan nan nan nan nan nan nan nan nan nan nan nan nan nan nan -2 -1 nan nan nan nan nan nan nan nan nan nan nan nan nan nan nan nan nan nan nan nan nan nan nan nan nan nan nan nan nan nan nan nan -0 -0 -0 -0 -0 -0 -0 -0 -0 -0 -0 -0 -0 -0 -0 -0 -0 -0 -0 -0 -0 -0 -0 -0 -0 -0 -0 -0 -0 -0 -0
nan nan nan nan nan nan nan nan nan nan nan nan nan nan nan nan nan nan nan nan nan nan nan nan nan nan nan nan nan nan nan nan nan nan nan nan nan nan nan nan nan nan nan nan nan nan nan nan nan nan nan nan nan nan nan -0 -0 -0 -0 -0 -0 -0 -0 -0 -0 -0 -0 -0 -0 -0 -0 -0 -0 -0 -0 -0 -0 -0 -0 -0 -0 -0 -0 -0 -0 -0
nan nan nan nan nan nan nan nan nan nan nan nan nan nan nan nan nan nan nan nan nan nan nan nan nan nan nan nan nan nan nan nan nan nan nan nan nan nan nan nan nan nan nan nan nan nan nan nan nan nan nan nan nan nan nan nan nan -0 -0 -0 -0 -0 -0 -0 -0 -0 -0 -0 -0 -0 -0 -0 -0 -0 -0 -0 -0 -0 -0 -0 -0 -0 -0 -0 -0 -0
nan nan nan nan nan nan -6 -0 -0 -0 -6 nan nan nan nan nan nan nan nan nan nan nan nan nan nan nan nan nan nan nan nan nan nan nan nan nan nan nan nan nan nan nan nan nan nan nan nan nan nan nan nan nan nan nan nan nan nan -0 -0 -0 -0 -0 -0 -0 -0 -0 -0 -0 -0 -0 -0 -0 -0 -0 -0 -0 -0 -0 -0 -0 -0 -0 -0 -0 -0 -0
-0 nan -0 -0 -0 -0 -0 -0 -0 -0 -0 -2 nan nan nan nan nan nan nan nan nan nan nan nan nan nan nan nan nan nan nan nan nan nan nan nan nan nan nan nan nan nan nan nan nan nan nan nan nan nan nan nan nan nan nan nan nan -0 -0 -0 -0 -0 -0 -0 -0 -0 -0 -0 -0 -0 -0 -0 -0 -0 -0 -0 -0 -0 -0 -0 -0 -0 -0 -0 -0 -0
-0 -0 -0 -0 -0 -0 -0 nan -0 -0 -0 -0 -0 -0 nan nan nan nan nan nan nan nan nan nan nan nan nan nan nan nan nan nan nan nan nan nan nan nan nan nan nan nan nan nan nan nan nan nan nan nan nan nan nan nan nan nan nan -0 -0 -0 -0 -0 -0 -0 -0 -0 -0 -0 -0 -0 -0 -0 -0 -0 -0 -0 -0 -0 -0 -0 -0 -0 -0 -0 -0 -4
nan nan -0 -0 -0 -0 nan nan -0 -0 -0 -0 -0 -0 nan nan nan nan nan nan nan nan nan nan nan nan nan nan nan nan nan nan nan nan nan nan nan nan nan nan nan nan nan nan nan nan nan nan nan nan nan nan nan nan nan nan nan nan nan -0 -0 -0 -0 -0 -0 -0 -0 -0 -0 -0 -0 -0 -0 -0 -0 -0 -0 -0 -0 -0 -0 -0 -0 -0 -0 -8
nan nan nan nan nan nan nan nan nan nan -0 -0 -0 -0 nan nan nan nan nan nan nan nan nan nan nan nan nan nan nan nan nan nan nan nan nan nan nan nan nan nan nan nan nan nan nan nan nan nan nan nan nan nan nan nan nan nan nan nan nan nan nan nan -0 -0 -0 -0 -0 -0 -0 -0 -0 -0 -0 -0 -0 -0 -0 -0 -0 -0 -0 -0 -0 -9 -9 -11
nan nan nan nan nan nan nan nan nan nan nan -0 -0 -0 nan nan nan nan nan nan nan nan nan nan nan nan nan nan nan nan nan nan nan nan nan nan nan nan nan nan nan nan nan nan nan nan nan nan nan nan nan nan nan nan nan nan nan nan nan nan nan nan nan -0 -0 -0 -0 -0 -0 -0 -0 -0 -0 -0 -0 -0 -0 -0 -0 -0 -0 -0 -6 -12 -12 -12
nan nan nan nan nan nan nan nan nan nan nan nan nan nan nan nan nan nan nan nan nan nan nan nan nan nan nan nan nan nan nan nan nan nan nan nan nan nan nan nan nan nan nan nan nan nan nan nan nan nan nan nan nan nan nan nan nan nan nan nan nan nan nan nan nan nan nan -0 -0 -0 -0 -0 -0 -0 -0 -0 -0 -0 -0 -0 -0 -0 -2 -11 -11 -7
nan nan nan nan nan nan nan nan nan nan nan nan nan nan nan nan nan nan nan nan nan nan nan nan nan nan nan nan nan nan nan nan nan nan nan nan nan nan nan nan nan nan nan nan nan nan nan nan nan nan nan nan nan nan nan nan nan nan nan nan nan nan nan nan nan nan nan nan nan nan -0 -0 -0 -0 -0 -0 -0 -0 -0 -0 -0 -0 -0 -8 -8 -7
nan nan nan nan nan nan nan nan nan nan nan nan nan nan nan nan nan nan nan nan nan nan nan nan nan nan nan nan nan nan nan nan nan nan nan nan nan nan nan nan nan nan nan nan nan nan nan nan nan nan nan nan nan nan nan nan nan nan nan nan nan nan nan nan nan nan nan nan nan nan nan nan nan nan -0 -0 -0 -0 -0 -0 -0 -0 -0 -0 -0 -3
nan nan nan nan nan nan nan nan nan nan nan nan nan nan nan nan nan nan nan nan nan nan nan nan nan nan nan nan nan nan nan nan nan nan nan nan nan nan nan nan nan nan nan nan nan nan nan nan nan nan nan nan nan nan nan nan nan nan nan nan nan nan nan nan nan nan nan nan nan nan nan nan nan nan nan -0 -0 -0 -0 -0 -0 -0 -0 -0 -0 -0
nan nan nan nan nan nan nan nan nan nan nan nan nan nan nan nan nan nan nan nan nan nan nan nan nan nan nan nan nan nan nan nan nan nan nan nan nan nan nan nan nan nan nan nan nan nan nan nan nan nan nan nan nan nan nan nan nan nan nan nan nan nan nan nan nan nan nan nan nan nan nan nan nan nan nan -0 -0 -0 -0 -0 -0 -0 -0 -0 -0 -0
nan nan nan nan nan nan nan nan nan nan nan nan nan nan nan nan nan nan nan nan nan nan nan nan nan nan nan nan nan nan nan nan nan nan nan nan nan nan nan nan nan nan nan nan nan nan nan nan nan nan nan nan nan nan nan nan nan nan nan nan nan nan nan nan nan nan nan nan nan nan nan nan nan nan nan -0 -0 -0 -0 -0 -0 -0 -0 -0 -0 -0
nan nan nan nan nan nan nan nan nan nan nan nan nan nan nan nan nan nan nan nan nan nan nan nan nan nan nan nan nan nan nan nan nan nan nan nan nan nan nan nan nan nan nan nan nan nan nan nan nan nan nan nan nan nan nan nan nan nan nan nan nan nan nan nan nan nan nan nan nan nan nan nan nan nan nan nan nan nan nan nan nan -3 -0 -0 -0 -0
nan nan nan nan nan nan nan nan nan nan nan nan nan nan nan nan nan nan nan nan nan nan nan nan nan nan nan nan nan nan nan nan nan nan nan nan nan nan nan nan nan nan nan nan nan nan nan nan nan nan nan nan nan nan nan nan nan nan nan nan nan nan nan nan nan nan nan nan nan nan nan nan nan nan nan nan nan nan nan nan nan nan nan nan nan -0
nan nan nan nan nan nan nan nan nan nan nan nan nan nan nan nan nan nan nan nan nan nan nan nan nan nan nan nan nan nan nan nan nan nan nan nan nan nan nan nan nan nan nan nan nan nan nan nan nan nan nan nan nan nan nan nan nan nan -5 nan nan nan nan nan nan nan nan nan nan nan nan nan nan nan nan nan nan nan nan nan nan nan nan nan nan nan
nan nan nan nan nan nan nan nan nan nan nan nan nan nan nan nan nan nan nan nan nan nan nan nan nan nan nan nan nan nan nan nan nan nan nan nan nan nan nan nan nan nan nan nan nan nan nan nan nan nan nan nan nan nan nan nan nan -2 -0 nan nan nan nan nan nan nan nan nan nan nan nan nan -12 -12 nan nan nan nan nan nan nan nan nan nan nan nan
nan nan nan nan nan nan nan nan nan nan nan nan nan nan nan nan nan nan nan nan nan nan nan nan nan nan nan nan nan nan nan nan nan nan nan nan nan nan nan nan nan nan nan nan nan nan nan nan nan nan nan nan nan nan nan nan nan nan -3 nan nan nan nan nan nan nan nan nan nan nan -10 nan nan nan nan nan nan nan nan nan nan -12 -5 nan nan nan
nan nan nan nan nan nan nan nan nan nan nan nan nan nan nan nan nan nan nan nan nan nan nan nan nan nan nan nan nan nan nan nan nan nan nan nan nan nan nan nan nan nan nan nan nan nan nan nan nan nan nan nan nan nan nan nan nan nan nan nan nan nan nan nan nan nan nan nan nan nan nan nan nan nan nan nan nan nan nan nan nan -0 -0 nan nan nan
nan nan nan nan nan nan nan nan nan nan nan nan nan nan nan nan nan nan nan nan nan nan nan nan nan nan nan nan nan nan nan nan nan nan nan nan nan nan nan nan nan nan nan nan nan nan nan nan nan nan nan nan nan nan nan nan nan nan nan nan nan nan nan nan nan nan nan nan nan nan nan nan nan nan nan nan nan nan nan nan nan nan nan nan nan nan
nan nan nan nan nan nan nan nan nan nan nan nan nan nan nan nan nan nan nan nan nan nan nan nan nan nan nan nan nan nan nan nan nan nan nan nan nan nan nan nan nan nan nan nan nan nan nan nan nan nan nan nan nan nan nan nan nan nan nan nan nan nan nan nan nan nan nan nan nan nan nan nan nan nan nan nan nan nan nan nan nan nan nan nan nan nan
nan nan nan nan nan nan nan nan nan nan nan nan nan nan nan nan nan nan nan nan nan nan nan nan nan nan nan nan nan nan nan nan nan nan nan nan nan nan nan nan nan nan nan nan nan nan nan nan nan nan nan nan nan nan nan nan nan nan nan nan nan nan nan nan nan nan nan nan nan nan nan nan nan nan nan nan nan nan nan nan nan nan nan nan nan nan
nan nan nan nan nan nan nan nan nan nan nan nan nan nan nan nan nan nan nan nan nan nan nan nan nan nan nan nan nan nan nan nan nan nan nan nan nan nan nan nan nan nan nan nan nan nan nan nan nan nan nan nan nan nan nan nan nan nan nan nan nan nan nan nan nan nan nan nan nan nan nan nan nan nan nan nan nan nan nan nan nan nan nan nan nan nan
nan nan nan nan nan nan nan nan nan nan nan nan nan nan nan nan nan nan nan nan nan nan nan nan nan nan nan nan nan nan nan nan nan nan nan nan nan nan nan nan nan nan nan nan nan -23 nan nan nan nan nan nan nan nan nan nan nan nan nan nan nan nan nan nan nan nan nan nan nan nan nan nan nan nan nan nan nan nan nan nan nan nan nan nan nan nan
nan nan nan nan nan nan nan nan nan nan nan nan nan nan nan nan nan nan nan nan nan nan nan nan nan nan nan nan nan nan nan nan nan nan nan nan nan nan nan nan nan nan nan nan nan nan nan nan nan nan nan nan nan nan nan nan nan nan nan nan nan nan nan nan nan nan nan nan nan nan nan nan nan nan nan nan nan nan nan nan nan nan nan nan nan nan
nan nan nan nan nan nan nan nan nan nan nan nan nan nan nan nan nan nan nan nan nan nan nan nan nan nan nan nan nan nan nan nan nan nan nan nan nan nan nan nan nan nan nan nan nan nan nan nan nan nan nan nan nan nan nan nan nan nan nan nan nan nan nan nan nan nan nan nan nan nan nan nan nan nan nan nan nan nan nan nan nan nan nan nan nan nan
nan nan nan nan nan nan nan nan nan nan nan nan -1 -1 nan nan nan nan nan nan nan nan nan nan nan nan nan nan nan nan nan nan nan nan nan nan nan nan nan nan nan nan nan nan nan nan nan nan nan nan nan nan nan nan nan nan nan nan nan nan nan nan nan nan nan nan nan nan nan nan nan nan nan nan nan nan nan nan nan nan nan nan nan nan nan nan
Wind_Speed
2 2 1 2 2 2 2 2 2 2 2 2 2 2 2 3 3 3 4 3 3 2 2 2 2 3 4 7 9 10 10 10 10 10 10 10 9 9 9 10 10 11 11 12 13 13 13 14 14 14 14 14 14 14 14 15 15 15 15 15 15 15 16 16 16 16 16 16 16 16 16 16 16 16 16 16 16 17 17 18 18 18 18 19 19 20
2 2 1 2 3 3 1 2 2 2 2 2 2 2 2 2 2 2 2 2 2 1 1 1 2 2 3 5 8 10 10 10 10 10 10 9 9 9 10 10 11 12 12 13 13 14 14 14 14 14 14 14 14 14 14 14 14 14 14 15 15 15 15 15 15 15 15 15 16 16 16 16 16 16 16 17 17 17 18 18 18 18 19 19 20 20
2 2 1 2 3 2 1 1 1 1 2 1 1 1 1 1 2 2 2 2 2 1 1 1 1 2 3 4 7 10 10 10 10 10 10 9 9 9 10 11 12 12 13 14 14 14 14 14 14 14 14 14 14 14 14 14 14 14 14 14 14 14 14 15 15 15 15 15 15 15 16 16 16 16 17 17 17 18 18 18 18 19 19 20 20 21
2 2 2 1 2 2 1 1 1 1 1 1 1 1 1 1 1 1 1 1 1 1 1 1 1 2 2 4 6 9 10 11 10 10 10 9 9 10 11 11 12 13 14 14 14 14 14 14 14 14 14 14 14 13 13 13 13 13 13 14 14 14 14 14 15 15 15 15 15 15 16 16 16 17 17 17 18 18 18 18 19 19 20 20 20 21
1 2 1 1 1 2 1 1 1 0 1 1 1 1 1 1 0 1 1 1 2 2 1 1 1 2 2 3 5 8 10 11 11 10 10 10 10 11 11 12 13 14 14 15 15 14 14 14 14 14 14 14 14 13 13 13 13 13 13 14 14 14 14 14 15 15 15 15 16 16 16 16 16 17 17 17 18 18 18 19 19 19 20 20 21 21
1 1 1 1 1 1 1 1 1 1 1 1 1 1 1 1 1 1 1 2 2 2 2 1 1 2 2 3 5 8 10 11 11 10 10 10 11 11 12 13 14 15 15 15 15 15 14 14 14 14 14 14 14 14 14 13 13 14 14 14 14 14 15 15 15 15 15 16 16 16 16 16 17 17 17 18 18 18 19 19 19 20 20 20 21 21
2 1 1 1 1 1 1 2 2 2 1 1 1 1 1 1 1 1 1 1 1 1 2 1 1 2 2 3 5 7 8 9 10 10 10 10 11 12 13 14 15 15 15 15 15 15 15 14 14 14 14 14 14 14 14 14 14 14 14 14 14 15 15 15 15 15 16 16 16 16 17 17 17 17 18 18 18 19 19 19 20 20 20 20 21 21
2 1 1 1 1 1 1 1 2 2 2 1 1 2 2 2 1 1 2 1 1 1 1 2 2 2 2 2 3 4 5 6 6 7 7 8 9 11 12 14 15 15 15 15 15 15 15 15 15 15 15 14 14 14 14 14 14 14 15 15 15 15 15 15 16 16 16 16 16 17 17 17 17 18 18 18 19 19 19 20 20 20 20 20 21 21
3 2 2 1 1 1 1 1 2 2 2 1 1 1 1 2 2 2 2 2 1 1 1 2 3 3 2 2 2 2 3 4 4 4 5 5 6 8 11 12 14 14 15 15 15 15 15 15 15 15 15 15 15 15 15 15 15 15 15 15 16 16 16 16 16 16 16 17 17 17 17 18 18 18 18 19 19 19 19 19 20 20 20 20 21 21
3 3 2 2 1 1 2 1 1 1 1 1 1 1 1 1 2 2 2 2 2 1 1 2 3 4 4 2 2 2 3 4 5 6 7 7 8 10 11 11 12 13 14 15 15 15 15 15 15 15 15 15 15 15 15 15 16 16 16 16 16 16 16 16 17 17 17 17 17 18 18 18 18 18 18 19 19 19 19 19 19 20 20 20 20 21
2 2 2 2 1 1 2 1 0 1 1 1 1 1 1 1 2 2 3 4 3 3 2 2 2 3 4 3 2 2 2 3 4 5 7 8 10 11 11 11 12 12 14 14 14 15 15 15 15 15 15 15 15 15 16 16 16 16 16 17 17 17 17 17 17 17 17 18 18 18 18 18 18 18 18 18 18 18 18 19 19 19 19 20 20 21
2 2 2 1 1 1 1 1 0 0 1 1 1 2 2 1 1 1 2 3 4 5 4 3 2 2 3 3 2 2 2 2 2 3 4 5 6 7 7 8 9 10 11 11 12 13 14 15 15 15 15 15 15 16 16 16 16 17 17 17 17 17 17 17 17 18 18 18 18 18 18 18 18 18 18 18 18 18 18 18 19 19 19 20 20 21
2 1 1 1 1 1 1 1 1 1 1 1 1 1 1 1 1 1 1 2 3 4 4 4 3 3 2 2 1 1 1 2 2 3 3 4 4 3 3 4 5 5 6 6 7 8 11 13 13 13 14 14 15 16 16 16 16 17 17 17 17 17 17 17 18 18 18 18 18 18 18 18 18 18 18 18 18 18 18 19 19 19 20 20 20 21
2 2 2 2 1 1 1 1 1 1 1 1 1 1 0 1 1 1 1 1 2 3 3 3 3 3 2 1 0 0 0 1 2 3 4 4 3 2 2 3 4 4 4 4 4 5 8 9 9 10 12 13 14 15 15 16 16 17 17 17 18 18 18 18 17 17 17 17 17 17 17 17 18 18 18 18 18 18 19 19 19 20 20 20 21 21
2 2 2 2 1 1 0 1 1 1 1 1 1 0 0 1 1 1 1 2 3 3 3 3 3 3 2 1 0 1 1 1 2 4 5 5 3 2 2 2 3 4 4 4 4 5 7 7 6 6 8 10 11 13 14 15 16 17 18 18 18 18 17 17 17 17 17 17 17 17 17 17 18 18 18 18 18 19 19 19 20 20 20 20 21 21
2 2 2 2 1 1 1 1 1 1 1 1 0 0 0 1 1 1 1 2 3 3 3 4 4 3 2 2 0 1 1 1 2 4 6 6 4 2 1 2 3 4 4 4 4 4 5 5 5 5 6 10 13 15 17 17 17 18 18 18 18 17 17 17 17 17 17 17 17 17 17 18 18 18 18 19 19 19 19 20 20 20 20 21 21 21
1 2 2 2 1 1 1 1 1 1 1 0 0 1 1 1 1 1 1 2 2 2 2 3 3 3 3 2 1 0 1 1 2 4 6 6 5 3 1 2 3 4 5 5 4 4 4 5 5 5 6 11 14 17 18 18 18 18 18 18 18 17 17 17 17 17 17 17 17 18 18 18 18 18 19 19 19 19 20 20 20 21 21 21 21 21
1 1 2 2 1 0 0 0 0 0 1 1 1 1 2 1 1 0 0 1 2 2 2 2 2 2 3 3 2 1 2 1 3 5 6 6 5 3 1 2 3 4 5 5 5 4 4 5 5 6 8 14 17 18 19 19 19 18 18 18 18 17 17 17 17 17 17 18 18 18 18 19 19 19 19 19 20 20 20 20 20 21 21 21 21 21
1 1 2 1 1 0 0 0 1 1 1 2 2 1 1 0 0 0 1 0 1 2 2 2 2 2 2 3 3 2 1 1 3 4 5 6 5 4 2 2 3 4 5 5 5 5 5 5 7 10 13 16 18 19 19 19 19 18 18 18 18 17 17 17 17 18 18 18 18 19 19 19 19 20 20 20 20 20 20 21 21 21 21 21 21 21
2 1 1 2 2 1 1 1 2 2 2 2 1 1 1 1 1 0 0 1 1 1 2 3 3 3 3 3 3 2 1 2 3 3 4 5 5 4 2 2 3 4 5 5 5 4 5 5 6 9 13 16 17 18 19 19 18 18 18 18 18 17 17 18 18 18 18 19 19 19 19 20 20 20 20 20 20 21 21 21 21 21 21 21 22 22
2 1 2 2 2 2 1 2 2 3 3 1 1 1 1 1 1 1 1 1 2 2 2 3 3 3 3 4 4 4 3 2 2 3 3 4 4 3 2 1 3 4 6 6 5 4 5 5 5 7 10 14 17 18 19 19 18 18 18 18 18 18 18 18 18 19 19 19 20 20 20 20 20 20 20 21 21 21 21 21 21 21 22 22 22 22
2 2 3 3 3 2 2 2 2 2 2 1 1 0 0 1 1 2 2 2 2 3 3 4 4 4 3 4 4 4 2 1 1 2 3 3 4 3 1 2 3 4 6 6 5 5 4 5 5 7 10 15 17 18 19 18 18 18 18 18 18 18 18 19 19 19 20 20 20 20 20 20 20 21 21 21 21 21 21 21 22 22 22 22 22 22
2 2 3 3 3 3 2 2 2 2 1 1 1 1 1 1 1 2 2 2 2 3 3 3 3 3 3 4 4 3 2 1 1 1 1 3 4 3 2 2 4 5 5 5 5 5 5 5 6 7 10 15 17 18 18 18 18 17 17 18 18 18 19 19 20 20 20 20 20 20 20 21 21 21 21 21 21 21 21 22 22 22 22 22 22 22
2 2 2 3 3 3 2 2 2 2 2 2 2 1 1 1 1 1 1 1 1 2 2 3 3 3 3 3 3 3 1 0 1 1 1 2 3 3 3 3 4 6 6 5 5 6 6 6 6 6 7 12 15 17 17 17 17 17 17 18 19 19 20 20 20 20 20 20 21 21 21 21 21 21 21 21 22 22 22 22 22 22 22 22 22 22
2 2 2 2 3 3 2 2 2 2 2 1 1 0 0 1 1 1 1 1 1 2 2 3 3 3 3 2 2 2 2 0 1 1 1 2 3 3 3 3 4 5 6 5 5 5 6 6 6 6 5 8 12 15 16 16 17 17 18 19 19 20 20 20 20 20 21 21 21 21 21 21 21 21 22 22 22 22 22 22 22 22 22 22 22 22
1 1 1 0 0 1 2 3 3 3 2 0 1 2 1 1 2 2 3 2 2 2 3 3 3 3 3 2 2 3 2 1 1 2 1 1 2 4 3 3 3 4 6 6 5 6 6 6 6 5 4 6 9 12 14 15 16 18 19 19 20 20 21 21 21 21 21 21 21 21 21 21 21 22 22 22 22 22 22 22 22 23 23 23 22 21
4 4 4 4 5 5 6 6 6 6 6 4 2 2 3 2 3 3 2 2 1 1 2 2 3 3 3 2 2 3 3 2 1 1 2 0 2 3 4 3 4 5 6 6 6 6 7 7 6 5 5 4 6 8 12 14 16 18 19 20 20 21 21 20 20 20 21 21 21 21 21 21 22 22 22 22 22 22 22 22 23 23 22 21 18 16
7 7 7 7 7 7 7 7 7 6 6 6 5 4 4 3 2 1 1 1 0 0 0 1 2 3 3 3 3 3 3 2 1 1 2 1 1 3 4 4 4 5 6 6 6 6 7 6 5 5 4 4 4 6 9 12 15 17 18 19 20 20 20 20 20 20 21 21 21 21 22 22 22 22 22 22 22 22 22 23 23 22 20 16 12 9
8 8 8 8 8 8 8 8 7 7 6 6 6 5 4 3 2 1 2 2 1 1 0 1 2 2 3 3 3 3 3 2 2 1 2 0 2 3 3 4 4 5 6 6 5 5 4 4 3 3 3 4 4 4 6 9 12 13 15 17 18 18 19 19 20 20 21 21 21 21 22 22 22 22 22 22 22 22 23 23 22 20 15 12 9 8
6 6 6 7 7 7 6 6 6 6 6 6 6 4 3 2 2 2 2 2 2 1 1 2 2 2 3 3 3 3 2 2 2 1 1 1 3 4 4 4 4 4 5 5 5 5 3 2 2 2 2 4 4 4 5 6 7 8 9 12 13 14 16 17 19 20 20 21 21 21 22 22 22 22 22 22 22 23 23 23 21 16 11 9 8 8
4 4 4 4 4 4 4 3 4 4 5 5 5 4 1 1 2 2 3 3 2 2 2 2 2 2 3 3 3 2 2 3 2 2 1 2 3 3 4 4 4 4 3 4 4 5 5 4 2 2 2 4 4 5 5 5 5 5 6 7 7 9 13 15 17 18 19 20 20 21 21 21 22 22 22 22 23 23 23 23 20 15 10 9 8 8
2 2 2 2 3 3 3 3 3 3 3 4 3 3 2 1 2 2 3 3 3 2 2 2 2 2 3 2 2 2 3 3 3 2 2 2 3 3 3 4 4 4 3 3 3 4 5 5 4 4 4 5 5 5 5 5 5 5 5 5 5 7 11 13 14 15 15 17 18 19 20 21 21 22 22 22 22 22 22 22 20 16 11 9 9 9
2 2 2 2 2 2 2 2 2 2 2 2 3 3 3 2 2 2 3 3 3 3 3 2 3 3 3 3 3 3 3 3 4 4 4 3 3 3 3 4 4 5 4 3 3 3 4 5 5 5 5 5 5 5 5 5 5 4 5 4 4 5 9 10 11 11 11 13 14 15 17 18 19 20 21 22 22 22 22 22 21 18 14 11 10 10
2 2 2 2 3 3 3 2 2 2 3 3 3 3 3 2 3 3 3 3 3 3 3 3 3 3 4 4 4 4 4 4 4 5 5 3 3 3 4 4 4 5 5 4 4 4 4 5 6 6 6 5 5 4 4 5 4 4 3 4 4 5 6 7 7 8 9 9 9 9 11 12 14 16 18 19 20 21 21 22 22 21 19 15 12 11
2 2 2 3 3 3 3 3 3 3 3 3 3 3 3 3 3 3 3 3 3 3 3 3 3 3 4 4 4 4 5 4 4 5 5 4 3 3 4 4 4 5 5 5 5 4 4 6 7 7 7 6 6 5 4 4 4 4 4 4 5 5 5 6 6 6 7 7 7 7 7 8 9 11 13 15 18 20 22 23 23 23 22 20 16 13
2 2 2 2 2 3 3 3 3 3 3 3 3 3 3 3 3 3 3 3 3 3 4 4 4 4 4 4 5 5 6 5 6 6 6 4 4 3 4 4 4 5 5 6 5 5 5 6 7 8 8 7 6 5 4 4 4 4 5 5 5 6 6 5 5 5 5 6 6 6 6 7 7 8 10 14 18 20 22 23 23 23 22 22 20 18
2 2 2 2 2 2 2 2 2 3 3 3 3 3 3 3 3 3 3 3 3 4 4 4 4 5 5 5 5 6 6 6 6 7 7 5 4 4 4 4 5 5 5 6 6 6 6 7 8 8 7 7 6 6 6 5 5 5 6 5 5 6 6 6 5 5 5 6 7 7 7 7 7 8 10 14 17 18 19 20 20 20 21 21 21 21
2 2 2 2 2 2 2 2 2 2 3 3 3 4 4 4 4 4 4 4 4 4 4 4 4 5 7 8 8 7 7 8 8 9 8 6 5 4 5 5 5 6 5 6 6 7 7 7 8 8 7 6 7 7 8 7 7 7 7 6 6 6 5 5 5 5 5 6 7 8 9 8 8 8 8 10 10 10 11 11 13 15 17 18 19 20
1 2 2 2 2 2 2 2 3 3 3 3 4 4 4 4 4 4 3 4 4 4 4 4 4 5 6 7 8 9 9 9 9 9 9 7 5 5 5 5 6 6 6 6 6 6 6 6 7 7 7 7 8 8 8 7 7 8 8 7 6 6 5 5 5 5 5 6 7 8 8 7 7 7 7 7 7 8 9 9 10 11 12 11 13 16
1 2 2 2 2 2 2 3 3 3 3 4 4 4 4 4 3 3 3 3 4 4 4 4 4 4 5 6 7 8 8 8 8 8 7 6 5 5 5 5 6 6 6 5 5 6 6 7 7 8 8 8 8 8 7 7 7 8 9 8 6 6 6 6 6 5 5 5 6 6 7 7 7 8 8 8 8 8 8 8 9 9 10 9 9 10
1 2 2 3 3 3 3 4 4 3 4 3 3 3 3 3 3 3 3 3 3 3 3 3 3 3 4 5 5 6 7 7 7 7 6 6 6 6 5 6 6 6 6 6 6 6 7 7 8 8 8 8 9 9 9 9 9 10 11 9 8 8 8 8 7 6 5 6 6 7 8 9 9 9 9 9 9 8 8 9 9 10 10 8 8 8
2 2 3 3 3 3 3 3 4 4 3 3 2 2 3 2 2 3 3 4 4 3 3 3 3 3 4 4 4 5 5 6 6 7 7 7 7 7 6 6 6 5 6 6 7 7 7 8 8 8 8 8 8 8 9 9 9 9 9 9 9 10 9 8 6 5 5 6 7 8 9 9 9 9 9 9 9 8 9 9 10 11 11 9 8 7
2 2 3 3 3 3 4 4 4 4 3 3 2 2 2 2 2 2 3 3 4 4 4 3 3 4 4 4 4 4 4 5 5 6 6 7 7 7 6 7 7 6 6 6 7 7 8 8 8 8 8 7 7 8 10 10 9 9 8 9 9 8 7 6 5 5 6 7 7 7 8 8 8 9 9 9 9 9 9 10 11 12 12 10 9 9
2 2 2 3 3 3 3 3 3 3 3 3 3 3 3 2 2 2 2 3 3 4 4 3 3 3 3 4 4 4 4 4 5 5 6 7 7 7 7 7 7 7 6 5 6 7 7 8 8 7 7 7 7 8 9 9 9 8 8 8 8 8 7 7 8 8 8 7 7 7 7 8 8 9 9 9 9 9 8 9 9 9 9 9 9 9
2 2 2 2 3 3 3 3 3 3 3 3 3 3 3 2 2 2 2 3 3 3 3 3 3 3 3 4 4 4 4 4 4 4 5 6 8 8 7 6 6 6 6 6 6 6 7 8 8 8 7 7 7 8 9 9 9 9 9 9 8 8 8 8 8 9 9 8 8 8 8 8 8 9 9 9 9 9 9 9 9 8 8 8 9 9
1 2 2 2 2 3 4 4 4 4 3 3 3 3 3 2 2 2 2 2 3 3 3 3 3 3 4 5 5 5 5 4 4 4 4 4 5 5 6 6 6 5 5 6 6 7 7 7 8 8 8 7 8 8 8 8 9 9 8 9 8 8 8 8 7 7 8 9 9 9 8 8 8 9 9 9 9 9 9 9 9 9 9 9 9 9
2 2 2 2 2 3 3 4 3 3 4 4 4 3 3 3 2 2 2 2 3 3 3 3 3 3 4 5 5 5 6 6 5 5 4 4 4 4 4 5 5 6 6 6 6 7 7 8 8 8 7 8 8 8 7 7 7 7 7 7 7 8 8 7 7 7 7 8 8 8 8 8 8 9 10 10 10 9 9 9 9 9 9 9 9 9
2 2 2 2 2 3 3 3 3 3 3 3 4 3 3 3 3 4 3 3 3 3 4 3 3 3 4 4 4 5 6 6 6 6 6 5 5 4 4 4 5 5 6 6 7 7 7 7 8 7 7 6 6 7 6 6 6 6 6 6 6 7 7 7 7 7 7 8 8 8 7 8 8 10 10 10 10 9 9 9 8 8 8 9 9 9
2 2 2 2 2 3 3 3 3 3 3 3 4 4 3 4 5 5 3 3 3 3 3 3 4 4 4 4 5 5 6 6 6 6 6 6 5 5 5 5 5 5 6 6 5 5 5 6 7 7 7 6 6 6 6 6 5 5 5 5 5 6 7 7 7 7 7 8 9 8 7 7 8 9 10 10 11 11 10 9 8 8 7 8 8 9
2 2 2 2 2 3 3 3 3 3 3 4 4 4 4 3 3 3 3 3 3 3 3 4 4 4 5 5 5 5 6 6 6 6 6 6 6 6 6 6 6 7 7 6 6 5 5 4 5 5 7 7 7 6 5 5 5 5 5 4 5 5 6 7 7 7 7 9 9 9 9 8 8 8 8 9 11 12 11 10 9 8 7 7 8 9
2 2 2 2 2 3 3 3 3 3 3 4 4 4 4 4 3 3 2 3 3 3 3 3 4 4 5 5 5 5 5 5 6 6 6 6 6 6 6 6 7 7 8 7 7 7 6 5 4 4 5 6 6 5 3 4 4 5 5 5 4 5 6 7 8 8 9 9 9 9 9 8 8 8 7 9 10 11 11 10 10 9 8 8 9 10
Wind_Direction
97 101 89 76 90 95 58 21 35 65 75 60 49 42 42 50 51 50 50 53 50 41 25 4 345 339 342 344 344 343 341 340 340 340 341 340 340 340 339 338 337 334 332 330 327 325 322 319 317 315 314 312 311 310 309 309 308 308 307 307 306 306 306 305 305 305 306 306 307 308 309 309 309 308 306 304 301 299 298 297 297 298 298 299 299 299
103 96 75 53 68 84 77 19 25 51 69 61 50 40 36 43 43 38 34 38 39 34 13 346 336 333 331 335 337 338 339 340 340 341 341 342 342 342 342 340 338 335 332 329 326 323 321 318 316 314 313 312 311 311 310 309 309 308 308 307 307 307 307 307 307 307 307 308 309 309 309 308 307 305 303 300 299 298 297 298 298 298 299 299 299 299
107 85 60 46 57 72 86 21 11 31 59 60 50 34 30 44 39 29 17 11 9 6 354 334 331 329 324 325 330 334 336 338 340 341 342 342 343 343 343 341 338 334 331 328 325 322 320 318 316 314 313 313 312 312 311 310 310 309 308 308 308 308 308 308 309 309 309 308 308 307 306 305 303 301 300 299 298 298 298 298 299 299 299 299 299 299
85 81 69 56 54 56 60 15 358 12 59 70 56 37 46 56 42 13 350 343 343 341 331 320 322 323 318 315 322 328 334 338 340 342 342 343 344 344 343 340 336 333 330 327 324 322 319 318 316 315 314 314 314 313 313 312 311 310 310 310 310 310 310 310 309 309 308 307 306 304 303 302 301 299 299 298 298 298 298 298 299 299 299 299 300 300
70 73 76 69 58 45 18 351 345 14 102 105 90 58 53 55 15 319 317 332 338 337 328 324 316 312 309 305 316 325 333 337 340 341 343 344 344 343 341 338 334 331 328 326 324 321 320 318 317 316 316 315 315 315 314 313 313 312 312 312 312 312 311 310 309 307 306 305 303 302 301 300 299 299 298 298 298 298 298 298 298 299 299 299 299 299
80 72 75 75 70 52 5 347 349 8 101 111 90 57 43 21 336 325 334 336 335 330 319 314 300 288 286 291 313 325 332 336 338 340 341 342 342 340 338 334 331 329 326 325 323 321 320 319 318 318 317 317 317 316 316 315 315 315 315 314 314 313 311 309 307 306 304 303 301 300 299 299 298 298 298 298 297 297 297 297 298 298 298 298 298 298
103 82 75 78 75 63 29 4 0 4 21 38 33 18 5 353 343 331 316 311 308 306 304 297 281 268 267 285 308 321 329 332 334 336 338 339 338 337 334 331 328 327 325 323 322 321 320 319 319 318 318 318 318 317 317 317 317 317 317 316 314 313 310 308 306 305 303 301 300 300 299 298 298 298 298 297 297 296 296 297 297 297 297 297 297 297
123 112 92 94 98 92 66 27 12 6 4 16 21 12 356 345 333 316 297 288 288 296 310 312 304 288 272 285 303 314 320 325 327 328 332 334 334 332 330 328 326 324 323 322 320 320 319 319 319 319 319 319 319 319 319 319 319 319 318 316 314 312 310 307 306 304 303 301 300 300 299 299 298 298 297 297 296 296 296 296 296 296 296 296 297 297
128 127 115 111 115 119 107 49 16 3 353 6 28 32 8 344 329 317 311 306 302 306 332 337 332 323 310 297 298 304 306 312 314 317 322 326 328 328 326 325 324 322 320 319 319 318 318 318 318 318 318 319 320 321 321 321 320 319 318 316 313 311 309 307 306 304 303 302 301 301 300 299 299 298 298 297 296 296 296 296 296 296 296 297 297 297
111 117 115 107 108 114 116 90 19 345 343 359 38 63 62 6 344 335 332 323 319 327 1 354 340 330 323 319 312 307 309 313 316 318 321 321 322 322 321 321 320 319 316 316 316 316 316 316 316 317 318 319 320 321 322 321 320 318 316 314 312 310 309 307 306 305 304 303 303 302 301 300 300 299 298 298 297 297 297 297 297 297 297 297 297 297
95 97 103 100 93 92 103 112 122 314 340 5 31 51 61 37 12 355 345 335 335 341 352 353 338 325 319 319 319 322 328 322 317 316 319 318 318 318 317 316 314 313 312 312 312 312 312 313 314 316 317 319 320 321 321 320 318 316 314 312 311 310 309 308 307 306 305 304 303 303 302 301 301 300 300 299 299 299 299 299 299 298 298 298 297 297
97 92 92 94 89 81 81 85 58 2 15 26 25 20 16 21 31 26 0 338 335 336 336 333 321 303 291 295 304 318 340 325 312 307 307 310 311 313 313 313 311 309 308 308 308 308 309 310 313 315 317 319 319 319 319 317 315 313 312 311 310 309 309 308 308 307 306 305 304 304 303 302 302 301 301 301 301 301 301 301 300 300 300 299 299 298
80 80 82 77 73 66 57 41 31 29 34 50 49 23 334 338 16 45 29 323 317 318 319 317 310 294 269 257 263 310 336 317 305 299 303 305 306 306 308 307 305 303 302 301 299 299 303 308 311 314 316 316 316 316 315 313 312 311 310 310 310 310 309 309 308 307 306 306 305 304 304 303 303 303 303 303 303 303 303 303 302 302 301 301 300 299
77 73 74 72 69 63 56 60 62 62 52 120 141 160 250 315 359 25 359 298 288 287 291 298 300 298 284 280 209 97 21 319 311 308 311 308 304 300 299 298 297 296 293 292 287 288 296 304 309 311 313 313 313 312 310 310 310 310 310 311 311 310 310 309 308 308 307 307 306 305 305 305 305 304 304 304 304 304 304 303 303 302 301 300 300 299
91 88 89 91 92 93 105 121 130 157 212 203 189 161 330 329 329 323 311 301 295 292 297 301 303 302 296 308 345 89 78 358 328 321 319 312 303 287 274 287 290 290 289 289 287 289 295 301 302 301 304 306 306 306 307 308 310 311 311 311 311 311 310 309 309 308 308 307 307 307 307 307 306 306 306 306 305 305 304 303 302 301 300 299 298 297
92 99 110 120 133 165 203 179 175 191 237 235 172 108 73 295 274 272 290 300 306 318 335 338 335 329 313 307 304 108 93 24 338 325 319 312 307 293 246 281 291 293 292 292 292 293 297 297 295 295 297 302 305 307 308 310 311 311 311 311 311 310 310 310 310 309 309 309 309 309 308 308 308 307 307 306 306 305 304 303 302 301 300 299 298 297
94 108 123 129 143 186 229 194 179 194 253 283 238 198 199 219 233 252 282 307 325 340 352 351 344 333 320 320 323 108 128 351 328 321 315 308 304 297 251 274 290 296 298 298 297 297 300 300 299 299 298 303 307 309 311 311 311 311 311 311 311 311 311 311 311 311 311 311 311 310 310 309 309 308 307 307 306 305 304 303 302 301 300 299 298 297
105 115 121 119 127 174 262 279 241 225 228 238 231 220 213 212 213 232 321 342 344 341 336 333 320 306 307 308 302 271 180 318 327 321 311 302 299 295 271 267 281 291 297 300 300 299 300 300 301 303 303 308 310 311 311 311 311 311 311 311 312 312 312 313 313 313 313 312 312 312 311 311 310 309 308 307 306 305 304 303 302 301 300 299 298 297
109 112 111 111 115 129 273 245 227 217 211 213 212 213 232 243 336 48 25 350 320 312 308 305 295 287 286 290 289 277 191 337 330 318 306 298 297 298 296 288 291 294 298 300 301 302 302 299 301 304 307 309 310 311 311 311 311 311 312 312 313 313 314 314 314 314 314 314 313 313 312 311 311 310 309 308 307 306 305 304 303 302 301 300 299 298
117 122 132 135 136 141 177 218 218 214 212 207 198 195 319 325 337 338 265 258 264 272 281 288 289 288 286 293 298 308 335 346 332 310 294 291 292 294 297 305 306 305 303 302 302 302 302 302 303 305 308 309 309 310 311 311 312 312 313 313 314 314 315 315 315 315 315 315 314 314 313 312 312 311 310 309 308 307 306 305 304 303 302 300 299 298
129 160 198 172 155 152 184 209 216 216 214 192 126 42 324 317 310 297 283 284 287 288 290 289 291 293 297 302 305 311 327 335 321 302 289 287 287 289 293 312 314 310 306 305 304 304 303 303 303 304 306 307 309 310 311 312 312 312 313 314 314 315 316 316 316 316 316 315 315 314 314 313 312 312 311 310 309 308 307 305 304 303 302 301 300 299
142 184 212 189 173 170 192 207 217 221 222 151 100 74 279 298 306 309 307 306 302 299 297 293 295 298 302 299 298 299 307 302 278 274 286 288 289 290 299 319 316 311 306 307 308 308 306 305 302 302 304 306 308 309 310 311 311 312 313 314 315 315 316 316 316 316 316 315 315 314 314 313 313 312 311 310 309 308 307 306 305 304 303 302 301 301
149 176 197 191 188 190 202 219 237 250 256 203 190 195 194 204 267 294 301 301 301 300 300 298 298 296 290 284 282 284 290 237 194 213 265 282 289 297 316 328 321 312 305 307 310 312 310 307 303 302 302 305 307 308 309 309 310 311 312 314 315 315 316 316 316 315 315 315 314 314 314 313 312 312 311 310 309 308 307 306 305 304 304 303 302 302
153 171 186 189 194 200 210 229 251 260 255 229 217 206 188 204 241 264 268 287 305 314 314 309 305 298 286 275 275 279 286 178 144 154 222 273 285 299 321 328 319 311 304 305 308 310 309 305 302 299 298 302 304 305 306 308 309 311 312 314 314 315 315 315 315 315 314 314 314 313 313 312 312 311 311 310 309 308 307 306 306 305 304 303 303 302
162 180 197 196 200 207 219 234 253 259 236 203 175 131 40 335 325 328 347 4 1 352 341 326 314 303 294 290 286 282 278 220 151 154 192 267 286 298 312 316 313 308 305 305 308 308 307 303 299 296 294 297 299 301 303 306 308 310 312 313 313 314 314 314 314 314 314 313 313 313 312 312 311 311 310 310 309 308 307 307 306 305 305 304 304 303
122 153 181 204 254 311 339 340 338 337 338 43 117 107 70 29 23 23 23 17 11 1 350 331 312 299 292 291 286 283 280 270 188 161 167 255 292 300 305 308 307 306 305 307 309 310 305 301 298 296 293 292 295 297 300 303 306 309 311 312 312 312 312 313 313 313 313 313 312 312 312 311 311 310 310 309 309 308 307 307 307 306 306 306 305 304
44 39 33 29 25 20 16 9 2 354 348 350 21 73 83 66 50 35 9 353 354 4 360 327 308 301 299 296 288 284 286 286 248 168 151 208 295 300 304 309 310 309 308 308 308 306 302 298 296 295 292 287 288 292 295 299 303 307 309 310 310 311 311 311 312 312 312 312 312 312 311 311 310 310 309 309 308 308 308 308 307 307 307 307 306 305
35 35 33 33 31 28 23 16 8 358 350 348 3 32 67 78 70 39 302 273 263 67 32 305 302 304 307 304 297 290 287 278 250 187 145 142 295 298 304 312 313 313 311 308 304 299 293 288 285 284 283 281 283 286 290 296 301 304 306 307 308 308 309 310 311 311 311 311 311 311 311 310 310 309 309 309 308 308 308 308 309 308 308 308 306 303
28 29 30 30 29 26 22 15 6 358 352 350 2 25 61 92 113 172 236 214 167 118 277 276 284 294 301 301 298 293 287 270 244 192 139 11 300 298 307 314 317 316 316 311 306 297 283 272 267 269 273 279 282 285 288 294 298 300 301 303 304 305 307 308 309 310 311 311 311 311 311 310 310 309 309 309 309 309 309 309 309 309 309 307 303 298
12 14 15 14 15 15 12 6 359 353 349 348 356 13 55 111 153 183 201 171 153 153 249 266 275 287 303 308 309 307 295 276 249 203 149 308 307 306 314 315 317 319 322 318 315 310 299 275 254 247 262 281 286 288 288 292 293 294 296 298 300 302 304 306 308 309 310 310 310 310 310 309 309 309 309 309 309 309 309 310 310 310 307 303 299 295
355 356 351 348 350 354 356 353 349 345 342 340 342 349 14 144 170 178 176 163 161 176 218 246 264 283 301 313 316 312 294 278 253 222 197 298 305 306 314 313 313 315 322 322 319 316 312 304 288 269 278 292 295 293 292 291 291 290 290 293 296 299 301 304 307 308 309 309 309 309 309 309 309 309 309 309 308 309 309 310 310 310 306 302 299 296
338 339 332 325 327 333 342 344 342 337 332 329 325 319 306 258 202 187 179 175 175 183 203 229 252 268 280 284 284 282 278 275 267 263 278 296 298 299 306 306 307 308 310 305 301 301 304 307 309 310 309 306 302 297 293 291 289 287 288 290 292 296 301 304 306 307 307 307 307 307 307 308 308 308 308 308 308 308 309 309 310 310 307 304 302 300
331 330 327 326 330 333 337 339 335 328 320 313 306 300 297 283 254 226 202 192 189 192 203 224 247 264 271 268 267 267 269 269 278 290 303 301 298 297 301 303 303 304 303 293 280 275 281 293 302 308 309 307 304 300 296 292 289 286 286 289 291 296 300 303 304 303 302 303 304 305 306 306 306 306 306 307 307 308 308 309 309 310 309 307 305 302
344 341 340 341 340 339 336 333 329 321 313 304 297 294 291 286 276 260 236 216 207 205 207 220 240 259 272 275 274 273 272 267 278 291 307 304 297 296 299 301 301 302 303 298 290 283 278 286 295 303 306 305 304 301 298 293 290 287 282 283 288 293 297 300 299 297 297 298 300 301 302 302 303 303 304 305 306 307 308 309 309 310 309 308 305 303
354 347 345 345 343 339 334 330 325 319 312 304 297 293 289 284 277 269 256 238 226 218 217 222 233 247 261 271 278 281 281 277 284 294 304 300 296 295 297 296 297 299 301 299 298 296 292 293 297 302 305 306 305 302 295 290 290 290 286 284 285 288 290 292 292 292 294 295 296 296 296 296 297 299 301 303 305 306 307 308 309 309 309 307 305 302
360 346 336 336 335 332 327 321 317 314 310 302 296 291 286 281 275 269 264 252 244 237 234 233 235 239 245 255 265 272 278 281 288 293 295 291 289 290 290 288 291 294 297 297 297 298 297 297 299 302 304 305 306 305 301 297 298 300 298 293 289 287 286 285 285 287 291 294 295 296 295 295 295 296 297 301 304 305 306 307 308 308 307 305 304 302
360 337 322 319 317 316 312 309 308 308 305 301 297 294 291 285 282 278 275 267 260 256 255 250 247 245 244 247 252 259 269 277 283 285 284 280 278 277 279 282 285 288 289 292 295 297 299 299 301 302 302 302 303 307 310 311 311 308 304 300 297 293 289 287 285 286 289 292 295 296 296 296 296 297 297 301 303 304 305 305 305 305 305 304 303 301
353 327 311 303 299 298 302 302 303 304 301 298 297 296 292 287 283 281 281 276 270 266 265 261 258 255 251 253 255 257 262 268 272 274 273 270 266 264 267 275 278 279 277 281 286 292 296 299 302 303 302 300 299 301 306 310 311 310 306 302 299 296 293 292 290 290 290 292 294 295 296 297 297 297 296 298 299 300 301 301 301 302 303 303 302 301
333 309 297 294 294 298 300 299 299 298 297 293 292 292 290 289 286 282 278 275 270 265 260 259 261 262 259 259 260 261 262 263 264 265 265 262 257 254 258 266 272 273 272 273 276 281 285 289 293 297 300 301 301 302 303 305 306 306 306 305 302 298 295 296 296 295 293 292 294 295 297 297 296 294 293 294 296 297 299 299 300 301 303 303 301 299
294 287 284 291 295 296 292 291 291 290 290 291 293 296 299 302 302 298 289 281 274 267 258 254 256 260 262 263 263 263 263 263 263 263 262 256 250 246 250 258 266 272 275 274 273 274 276 280 283 286 290 294 297 300 302 303 304 306 309 309 308 306 306 305 301 297 292 291 294 296 298 298 297 296 295 296 297 298 298 299 300 300 300 299 299 299
286 286 286 294 298 298 293 289 287 286 288 294 301 308 311 315 316 315 312 309 302 294 285 277 273 273 273 268 264 262 261 262 262 261 259 254 250 247 248 254 261 268 275 276 276 275 275 277 281 283 285 287 290 293 295 298 301 304 307 305 302 302 304 303 301 298 297 296 296 297 299 300 300 300 299 298 296 294 293 294 296 297 297 295 294 295
290 289 287 293 299 300 298 296 296 297 300 307 310 308 303 306 312 316 319 321 320 317 317 318 315 310 305 294 283 273 267 264 261 259 258 255 251 248 248 252 257 264 271 276 277 275 273 273 276 280 283 287 290 293 294 295 298 300 300 298 299 300 300 299 297 297 301 301 300 300 301 301 301 300 299 298 296 294 294 294 294 295 296 295 293 291
279 280 283 286 290 294 298 304 308 312 317 318 310 300 291 290 294 301 305 310 312 313 315 314 312 310 309 306 302 295 287 276 268 263 261 257 252 249 248 250 254 261 267 276 278 278 275 274 274 277 281 284 287 289 291 294 296 296 295 296 301 304 304 304 304 304 302 301 300 300 300 299 299 298 298 298 298 297 296 295 293 293 293 293 293 291
274 280 286 290 296 303 311 317 319 319 319 315 308 302 295 290 288 290 295 298 301 304 307 305 303 301 302 304 302 299 295 288 282 275 268 264 257 251 250 250 252 255 259 268 277 283 286 283 280 278 280 282 283 284 287 291 293 295 294 295 296 295 293 298 304 307 305 302 300 299 299 299 299 299 298 297 296 296 296 294 292 291 290 290 289 289
282 292 302 310 321 330 331 325 320 317 315 310 306 302 299 298 297 296 295 296 299 301 300 304 310 314 316 316 313 309 306 301 294 289 280 274 270 267 263 261 261 261 259 262 268 277 285 287 287 285 284 281 279 280 283 287 290 292 293 294 293 290 286 291 297 302 303 303 302 301 301 302 302 301 300 298 297 296 295 296 295 294 292 290 289 288
304 311 316 324 331 332 324 319 317 316 314 311 308 304 300 303 302 298 291 292 297 301 300 305 313 319 321 320 319 318 315 311 308 303 297 288 281 276 273 270 269 268 268 266 266 267 271 277 282 286 288 285 280 277 277 282 286 290 292 295 295 295 293 294 296 298 300 302 303 303 304 304 302 300 298 298 297 297 296 296 295 294 293 292 290 288
312 313 316 320 321 320 313 313 314 315 314 313 310 306 303 306 305 302 294 292 296 300 303 305 309 312 312 314 316 317 317 317 315 313 309 304 297 290 282 277 273 271 272 273 273 271 269 270 273 277 282 284 284 282 279 279 281 284 288 293 296 297 297 297 298 298 299 300 301 302 305 306 303 300 297 297 296 296 295 294 292 291 291 291 290 289
305 307 309 313 317 315 312 312 313 315 314 313 311 308 306 307 313 313 306 302 301 303 306 309 311 310 309 309 310 312 313 315 315 315 315 313 309 304 299 295 291 288 286 285 283 281 277 271 267 265 265 269 274 279 281 280 279 279 283 289 294 296 296 296 298 299 299 298 298 300 303 304 302 301 300 299 297 295 294 293 291 288 287 288 289 289
288 294 303 314 316 314 311 310 310 312 313 315 314 311 308 309 315 317 308 302 300 300 302 306 309 310 309 308 307 308 311 312 313 314 315 315 315 314 313 311 310 309 306 301 296 291 283 273 263 255 247 246 254 265 275 278 279 279 282 287 292 295 296 297 299 300 300 299 299 299 299 298 296 296 298 298 296 295 296 295 293 290 287 287 287 287
278 281 297 309 315 315 310 307 308 311 313 316 315 314 312 312 314 312 300 295 293 294 295 300 304 306 306 306 307 310 313 314 314 315 315 315 316 317 317 319 320 320 318 316 314 310 303 290 274 259 246 240 239 244 261 274 281 286 289 289 291 294 297 299 301 303 304 304 304 303 301 298 295 293 294 294 295 295 296 296 295 293 292 290 289 289
288 289 297 305 309 308 302 298 300 304 309 312 313 312 312 312 310 307 299 295 295 296 296 296 297 299 300 303 306 309 313 314 314 314 314 314 315 316 317 320 324 326 325 324 324 324 322 318 310 292 267 250 241 235 241 268 287 296 299 296 295 297 300 301 303 305 307 306 305 304 303 300 298 296 296 296 297 298 298 298 297 297 297 297 295 294